TimePST,TemperatureF,Dew PointF,Humidity,Sea Level PressureIn,VisibilityMPH,Wind Direction,Wind SpeedMPH,Gust SpeedMPH,PrecipitationIn,Events,Conditions,WindDirDegrees,DateUTC
12:53 AM,35.1,28.9,78,30.01,10.0,SSE,5.8,-,N/A,,Overcast,160,2012-01-15 08:53:00
1:53 AM,34.0,28.9,82,30.01,10.0,South,5.8,-,N/A,,Overcast,180,2012-01-15 09:53:00
2:53 AM,34.0,30.0,85,30.01,10.0,SSE,8.1,-,N/A,,Overcast,160,2012-01-15 10:53:00
3:53 AM,34.0,28.9,82,30.01,10.0,SSE,6.9,-,N/A,,Overcast,150,2012-01-15 11:53:00
4:39 AM,33.8,30.2,87,30.01,10.0,SE,4.6,-,N/A,,Overcast,140,2012-01-15 12:39:00
4:53 AM,33.1,28.9,85,30.01,10.0,SSE,4.6,-,N/A,,Overcast,150,2012-01-15 12:53:00
5:01 AM,33.8,28.4,81,30.01,10.0,SE,6.9,-,N/A,,Overcast,140,2012-01-15 13:01:00
5:53 AM,33.1,28.9,85,30.00,10.0,SSE,8.1,-,N/A,,Overcast,150,2012-01-15 13:53:00
6:53 AM,33.1,30.0,89,30.00,10.0,SE,6.9,-,0.00,,Overcast,140,2012-01-15 14:53:00
7:53 AM,33.1,28.9,85,29.99,7.0,SE,6.9,-,0.00,,Overcast,140,2012-01-15 15:53:00
8:32 AM,33.8,30.2,87,30.00,5.0,SE,6.9,-,0.00,Snow,Light Snow,140,2012-01-15 16:32:00
8:53 AM,33.1,30.9,92,30.00,4.0,SSE,3.5,-,0.03,Snow,Light Snow,150,2012-01-15 16:53:00
9:53 AM,33.1,30.9,92,30.01,3.0,SE,9.2,-,0.00,Snow,Light Snow,140,2012-01-15 17:53:00
9:56 AM,33.8,30.2,87,30.01,1.8,SE,8.1,-,0.00,Snow,Light Snow,140,2012-01-15 17:56:00
10:53 AM,33.1,32.0,96,30.01,1.8,Calm,Calm,-,0.02,Snow,Light Snow,0,2012-01-15 18:53:00
11:00 AM,33.8,32.0,93,30.01,3.0,SE,5.8,-,0.00,Snow,Light Snow,140,2012-01-15 19:00:00
11:53 AM,36.0,33.1,89,30.00,4.0,ESE,6.9,-,0.00,,Overcast,120,2012-01-15 19:53:00
12:53 PM,33.1,32.0,96,29.99,3.0,Calm,Calm,-,0.02,Snow,Light Snow,0,2012-01-15 20:53:00
1:00 PM,33.8,32.0,93,29.99,1.2,Calm,Calm,-,0.01,Snow,Light Snow,0,2012-01-15 21:00:00
1:08 PM,32.0,32.0,100,29.99,0.8,Calm,Calm,-,0.02,Snow,Light Snow,0,2012-01-15 21:08:00
1:53 PM,32.0,32.0,100,29.99,0.2,NNW,3.5,-,0.12,Fog-Snow,Snow,340,2012-01-15 21:53:00
2:00 PM,32.0,32.0,100,29.99,0.5,Calm,Calm,-,0.00,Fog-Snow,Light Snow,0,2012-01-15 22:00:00
2:02 PM,32.0,32.0,100,29.99,1.0,Calm,Calm,-,0.00,Snow,Light Snow,0,2012-01-15 22:02:00
2:05 PM,32.0,32.0,100,29.99,1.0,Calm,Calm,-,0.00,Snow,Light Snow,0,2012-01-15 22:05:00
2:21 PM,32.0,32.0,100,30.00,0.5,Calm,Calm,-,0.01,Fog-Snow,Snow,0,2012-01-15 22:21:00
2:34 PM,32.0,30.2,93,30.00,0.5,Calm,Calm,-,0.03,Fog-Snow,Snow,0,2012-01-15 22:34:00
2:53 PM,32.0,30.9,96,30.00,0.8,ENE,3.5,-,0.04,Snow,Light Snow,70,2012-01-15 22:53:00
2:59 PM,32.0,30.2,93,30.00,1.0,Calm,Calm,-,0.00,Snow,Light Snow,0,2012-01-15 22:59:00
3:17 PM,33.8,30.2,87,30.00,4.0,Calm,Calm,-,0.00,,Overcast,0,2012-01-15 23:17:00
3:53 PM,33.1,30.9,92,30.01,10.0,Calm,Calm,-,0.00,,Mostly Cloudy,0,2012-01-15 23:53:00
4:29 PM,33.8,32.0,93,30.02,10.0,Calm,Calm,-,N/A,,Overcast,0,2012-01-16 00:29:00
4:53 PM,33.1,32.0,96,30.02,8.0,Calm,Calm,-,0.00,Snow,Light Snow,0,2012-01-16 00:53:00
5:53 PM,32.0,30.9,96,30.03,10.0,Calm,Calm,-,N/A,,Overcast,0,2012-01-16 01:53:00
6:00 PM,32.0,30.2,93,30.03,10.0,Calm,Calm,-,N/A,,Overcast,0,2012-01-16 02:00:00
6:53 PM,32.0,30.0,92,30.04,10.0,Calm,Calm,-,N/A,,Partly Cloudy,0,2012-01-16 02:53:00
7:53 PM,30.9,28.9,92,30.05,10.0,Calm,Calm,-,N/A,,Scattered Clouds,0,2012-01-16 03:53:00
8:53 PM,28.0,26.1,92,30.07,9.0,Calm,Calm,-,N/A,,Partly Cloudy,0,2012-01-16 04:53:00
9:43 PM,24.8,24.8,100,30.08,1.0,SE,3.5,-,N/A,,Mist,130,2012-01-16 05:43:00
9:53 PM,26.1,24.1,92,30.09,0.5,SE,5.8,-,N/A,Fog,Light Freezing Fog,140,2012-01-16 05:53:00
10:15 PM,26.6,26.6,100,30.09,0.5,SE,6.9,-,N/A,Fog,Light Freezing Fog,130,2012-01-16 06:15:00
10:53 PM,26.1,26.1,100,30.11,0.5,SSE,3.5,-,N/A,Fog,Light Freezing Fog,150,2012-01-16 06:53:00
11:04 PM,28.4,26.6,93,30.11,4.0,ESE,4.6,-,N/A,,Overcast,120,2012-01-16 07:04:00
11:53 PM,28.0,27.0,96,30.12,6.0,SE,4.6,-,N/A,,Mostly Cloudy,140,2012-01-16 07:53:00